This demonstration page uses our WeatherBlox Daily Observations layout. Learn more.

Left ArrowRight Arrow

39.01783, -85.05884

Hourly Observations for August 15, 2022

Temp ( °F °C ) Dew Point ( °F °C ) Humidity (%) Winds ( mph kmh ) Pressure ( in mb ) Visibility ( mi km ) Precip ( " mm )
12:52 am 00:52 Cloudy 70 21.1 68 20 93 93 ENE 6 9 29.88 1012 10 16 0.00 0.00
12:59 am 00:59 Cloudy 70 21 68 20 94 94 NE 8 13 29.89 1012 10 16 0.00 0.00
1:52 am 01:52 Cloudy 68 20 66 18.9 93 93 ENE 7 11 29.88 1012 10 16 0.00 0.00
2:52 am 02:52 Cloudy 67 19.4 65 18.3 93 93 ENE 7 11 29.87 1012 10 16 0.00 0.00
3:52 am 03:52 Cloudy 66 18.9 64 17.8 93 93 N 7 11 29.87 1012 10 16 0.00 0.00
4:10 am 04:10 Cloudy 66 18.9 64 17.8 93 93 NNE 8 13 29.88 1012 10 16 0.00 0.00
4:52 am 04:52 Cloudy 66 18.9 65 18.3 96 96 NE 7 11 29.88 1012 9 14 0.00 0.00
5:52 am 05:52 Cloudy 66 18.9 64 17.8 93 93 NE 8 13 29.88 1012 9 14 0.00 0.00
6:15 am 06:15 Cloudy 66 18.9 64 17.8 93 93 NNE 13 20 29.89 1012 9 14 0.00 0.00
6:52 am 06:52 Cloudy 65 18.3 64 17.8 97 97 NNE 13 20 29.89 1012 10 16 0.00 0.00
7:52 am 07:52 Mostly Cloudy 65 18.3 63 17.2 93 93 NNE 10 17 29.90 1013 10 16 0.00 0.00
8:47 am 08:47 Cloudy 66 19 64 18 94 94 NNE 7 11 29.92 1013 10 16 0.00 0.00
8:52 am 08:52 Cloudy 66 18.9 64 17.8 93 93 NNE 6 9 29.92 1013 10 16 0.00 0.00
9:52 am 09:52 Cloudy 66 18.9 64 17.8 93 93 NE 7 11 29.92 1013 10 16 0.00 0.00
10:52 am 10:52 Cloudy 69 20.6 65 18.3 87 87 N 9 15 29.93 1014 10 16 0.00 0.00
11:09 am 11:09 Cloudy 69 20.6 65 18.3 87 87 NNE 6 9 29.93 1014 10 16 0.00 0.00
11:52 am 11:52 Mostly Cloudy 72 22.2 65 18.3 79 79 NNE 6 9 29.93 1014 10 16 0.00 0.00
12:52 pm 12:52 Mostly Cloudy 76 24.4 63 17.2 64 64 VRB 6 9 29.92 1013 10 16 0.00 0.00
1:43 pm 13:43 Mostly Cloudy 77 25 61 16.1 58 58 NNE 3 6 29.91 1013 10 16 0.00 0.00
1:52 pm 13:52 Mostly Cloudy 77 25 63 17.2 62 62 N 7 11 29.92 1013 10 16 0.00 0.00
2:52 pm 14:52 Cloudy 77 25 62 16.7 60 60 NE 6 9 29.93 1014 10 16 0.00 0.00
3:52 pm 15:52 Mostly Cloudy 80 26.7 62 16.7 54 54 NNE 9 15 29.92 1013 10 16 0.00 0.00
4:52 pm 16:52 Mostly Cloudy 80 26.7 62 16.7 54 54 NNE 8 13 29.91 1013 10 16 0.00 0.00
5:52 pm 17:52 Cloudy 78 25.6 62 16.7 58 58 N 9 15 29.92 1013 10 16 0.00 0.00
6:52 pm 18:52 Mostly Cloudy 78 25.6 60 15.6 54 54 NE 7 11 29.92 1013 10 16 0.00 0.00
7:52 pm 19:52 Mostly Cloudy 75 23.9 62 16.7 64 64 N 7 11 29.92 1013 10 16 0.00 0.00
8:52 pm 20:52 Mostly Cloudy 73 22.8 61 16.1 66 66 N 12 19 29.93 1014 10 16 0.00 0.00
9:52 pm 21:52 Mostly Cloudy 72 22.2 61 16.1 68 68 N 10 17 29.96 1015 10 16 0.00 0.00
10:52 pm 22:52 Mostly Cloudy 70 21.1 61 16.1 73 73 N 7 11 29.97 1015 10 16 0.00 0.00
11:52 pm 23:52 Mostly Cloudy 69 20.6 60 15.6 73 73 NNW 7 11 29.98 1015 10 16 0.00 0.00

Powered by AerisWeather